Regional Weather Roundup
Issued by NWS

Home | Current Version | Previous Version | Text Only | Print | Product List | Glossary On
Versions: 1 2 3 4 5 6 7 8 9 10 11 12 13 14 15 16 17 18 19 20 21 22 23 24 25 26 27 28 29 30 31 32 33 34 35 36 37 38 39 40 41 42 43 44 45 46 47 48 49 50
905
ASUS43 KMPX 192110
RWRMN
WEATHER ROUNDUP FOR MINNESOTA
NATIONAL WEATHER SERVICE TWIN CITIES/CHANHASSEN MN
300 PM CST MON FEB 19 2018


NOTE: "FAIR" INDICATES FEW OR NO CLOUDS BELOW 12,000 FEET WITH NO
SIGNIFICANT WEATHER AND/OR OBSTRUCTIONS TO VISIBILITY. N/A MEANS
CURRENT SKY AND/OR WEATHER CONDITIONS ARE NOT AVAILABLE.

MNZ060>063-068>070-192200-
   Twin Cities Metro

CITY           SKY/WX    TMP DP  RH WIND       PRES   REMARKS
TWIN CITIES    FRZ RAIN  23  20  88 NE17      29.86R FOG     WCI   9
ST PAUL        FRZ RAIN  23  19  85 NE15G21   29.88R FOG     WCI  10
CRYSTAL        LGT SNOW  21  17  84 NE15G23   29.87R VSB 1   WCI   8
BLAINE         LGT SNOW  23  19  86 NE17G29   29.86S WCI   9
LAKEVILLE      MIX PCPN  21  21 100 NE16G22   29.82F WCI   7
EDEN PRAIRIE   LGT SNOW  22  18  85 NE16G24   29.84R VSB 1   WCI   8
SOUTH ST PAUL  CLOUDY    24  20  86 NE9G17    29.86R FOG     WCI  14
LAKE ELMO      LGT SNOW  23  21  93 N9G16     29.87R WCI  13
$$
MNZ001>005-007-008-013>017-022>024-027-028-192200-
   Northwest Minnesota

CITY           SKY/WX    TMP DP  RH WIND       PRES   REMARKS
BEMIDJI        FAIR      11   0  59 NE13      30.07S WCI  -4
HALLOCK        FAIR       7  -8  51 NW10      30.25R WCI  -8
WARROAD        FAIR       7  -2  66 NE8       30.19F WCI  -6
THIEF RVR FALL FAIR       8  -5  55 N15       30.17F WCI  -9
CROOKSTON      FAIR       9  -2  61 N14       30.20S WCI  -8
FOSSTON        FAIR      10   0  61 N12       30.11S WCI  -4
DETROIT LAKES  FAIR      14   1  57 NE12      30.04F WCI   0
MOORHEAD       FAIR      10   0  61 N22G28    30.13F WCI  -9
PARK RAPIDS    CLOUDY    13   0  56 NE15G23   30.01F WCI  -3
MAHNOMEN       MOCLDY    10   1  65 N16       30.09S WCI  -7
$$
MNZ006-009>011-018-025>026-192200-
   North Central Minnesota

CITY           SKY/WX    TMP DP  RH WIND       PRES   REMARKS
BAUDETTE       FAIR      11  -2  56 N6        30.14F WCI   1
FLAG ISLAND    FAIR       7  -9  47 NE10      30.19S WCI  -8
INTL FALLS     FAIR      11  -2  56 N8        30.14F WCI  -1
WASKISH        FAIR      12   0  57 NE9       30.13R WCI   0
BIG FORK       FAIR      12   1  62 NE7       30.07F WCI   2
LONGVILLE      PTSUNNY   12   1  62 N5        30.04F WCI   4
GRAND RAPIDS   CLOUDY    11   1  64 NE9G16    30.06F WCI  -2
CRANE LAKE     FAIR      10   0  61 N6        30.16S WCI   1
ORR            PTSUNNY   12  -2  52 NE7       30.07F WCI   2
COOK             N/A     10   0  61 NE3       30.09F
WALKER         MOCLDY    12  -1  55 N8        30.05F WCI   1
$$
MNZ012-019>021-037-192200-
   Northeast Minnesota

CITY           SKY/WX    TMP DP  RH WIND       PRES   REMARKS
DULUTH         LGT SNOW  14   8  77 NE17      30.01F VSB 1   WCI  -3
ELY            PTSUNNY   10   1  67 NE5       30.09S WCI   2
HIBBING        CLOUDY    10   0  63 NE12      30.06S WCI  -5
EVELETH        FAIR     N/A N/A N/A NE10G18   30.07S
DULUTH HARBOR  SNOW      19  16  86 NE25G35   30.06F VSB 1/4 WCI   2
TWO HARBORS    LGT SNOW  18  10  73 NE10G16   30.04F WCI   6
GRAND MARAIS     N/A     16   3  56 N9        30.15S WCI   4
G MARAIS ARPRT CLOUDY     9  -2  61 N12       30.05S WCI  -6
$$
MNZ029>031-032-039>041-046>048-054>057-064-192200-
   West Central Minnesota

CITY           SKY/WX    TMP DP  RH WIND       PRES   REMARKS
FERGUS FALLS   CLOUDY    16   0  48 NE13G18   30.04S WCI   2
WHEATON        CLOUDY    12   3  67 N16G23    30.06S WCI  -4
MORRIS         CLOUDY    16   9  73 N15G21    29.97S WCI   1
ALEXANDRIA     CLOUDY    14   7  73 N17       29.95F WCI  -3
ELBOW LAKE     CLOUDY    13   4  68 NE15      30.01S WCI  -3
WADENA         FLURRIES  12   1  62 NE14G20   29.99F WCI  -3
GLENWOOD       CLOUDY    14   9  79 N20       29.93F WCI  -3
APPLETON       CLOUDY    18  10  73 N17       29.97S WCI   2
BENSON         CLOUDY    16   9  73 NE21G28   29.96S WCI  -2
ORTONVILLE     CLOUDY    14   7  73 N23       29.98S WCI  -5
MADISON        LGT SNOW  18  12  79 N15       29.97S WCI   3
WILLMAR        CLOUDY    16  10  79 NE20G29   29.92S WCI  -1
$$
MNZ033>034-036-042>043-049>051-058-059-192200-
   Central Minnesota

CITY           SKY/WX    TMP DP  RH WIND       PRES   REMARKS
ST CLOUD       CLOUDY    16   9  74 N14G21    29.92F WCI   2
SAUK CENTRE    CLOUDY    14   7  73 N15       29.94F WCI  -1
PAYNESVILLE    CLOUDY    15  11  81 NE20G26   29.91F WCI  -2
AITKIN         FLURRIES  10   7  85 N13       30.00S WCI  -5
PINE RIVER     FLURRIES  12   1  62 NE10      30.05F WCI  -1
BRAINERD       CLOUDY    14   5  67 NE17      30.00F WCI  -3
STAPLES        FLURRIES  12   3  67 N12       29.99F WCI  -2
LONG PRAIRIE   CLOUDY    14   7  73 N15G23    29.95F WCI  -1
LITTLE FALLS   CLOUDY    14   3  62 N8        29.98S WCI   3
LITCHFIELD     CLOUDY    18  12  79 N17G24    29.89S WCI   2
BUFFALO        CLOUDY    18  14  84 N16G22    29.90S FOG     WCI   4
MAPLE LAKE     CLOUDY    19  15  84 N17G24    29.90S FOG     WCI   4
HUTCHINSON     LGT SNOW  20  16  84 N15G25    29.87S WCI   6
$$
MNZ037-044-045-052-053-192200-
   East Central Minnesota

CITY           SKY/WX    TMP DP  RH WIND       PRES   REMARKS
PRINCETON      LGT SNOW  18  12  79 N18       29.92S WCI   2
MORA           LGT SNOW  18  12  79 N7        29.97S WCI   8
CAMBRIDGE      LGT SNOW  21  12  68 N10G23    29.92S WCI  10
RUSH CITY      CLOUDY    19  14  80 NE16G23   29.93S HAZE    WCI   4
MOOSE LAKE     LGT SNOW  18  12  79 NE8G20    29.98F WCI   7
HINCKLEY       LGT SNOW  19  14  79 NE10G18   29.96S WCI   8
CLOQUET        LGT SNOW  16   9  73 NE14G20   30.01S WCI   1
MCGREGOR       CLOUDY    14   9  79 N14       30.02S WCI  -1
$$
MNZ071>073-080-081-089-090-097-098-192200-
   Southwest Minnesota

CITY           SKY/WX    TMP DP  RH WIND       PRES   REMARKS
MONTEVIDEO     CLOUDY    16  10  79 NE17G23   29.94S HAZE    WCI   0
GRANITE FALLS  FLURRIES  18  12  77 N18       29.94S WCI   2
CANBY          LGT SNOW  15  12  88 N15       29.96R WCI   0
MARSHALL       FLURRIES  15  11  83 N21       29.91S WCI  -2
REDWOOD FALLS  CLOUDY    18  13  80 N16G23    29.88S WCI   3
OLIVIA         CLOUDY    21  12  68 N18G26    29.88S WCI   6
PIPESTONE      LGT SNOW  12  10  92 N15G24    29.84R WCI  -4
WINDOM         HAZE      19   7  58 N17G24    29.80S VSB 3/4 WCI   4
WORTHINGTON    LGT SNOW  17  14  88 N21G28    29.82R FOG     WCI   0
JACKSON        CLOUDY    19  18  93 N20       29.79S FOG     WCI   4
TRACY          LGT SNOW  17  15  90 N17       29.87S WCI   2
SLAYTON        LGT SNOW  15  13  91 N20G25    29.83R WCI  -2
$$
MNZ065>067-074>077-082>085-091>093-192200-
   South Central Minnesota

CITY           SKY/WX    TMP DP  RH WIND       PRES   REMARKS
MANKATO        MIX PCPN  23  20  88 NE23      29.79F FOG     WCI   7
NEW ULM        CLOUDY    19  16  86 NE14G22   29.84S FOG     WCI   6
ST JAMES       CLOUDY    19  19 100 N15       29.83S FOG     WCI   5
FAIRMONT       MIX PCPN  22  20  92 NE14G22   29.79S FOG     WCI   9
GLENCOE        LGT SNOW  21  18  89 N13G21    29.85S VSB 1   WCI   8
FARIBAULT      MIX PCPN  25  21  86 N14G23    29.79S WCI  13
OWATONNA       MIX PCPN  27  25  93 NE13      29.76S WCI  16
WASECA         CLOUDY    25  23  93 N14       29.78S FOG     WCI  13
ALBERT LEA     CLOUDY    27  25  93 NE8       29.73S FOG     WCI  18
$$
MNZ078>079-086>088-094>096-192200-
   Southeast Minnesota

CITY           SKY/WX    TMP DP  RH WIND       PRES   REMARKS
ROCHESTER      FRZ RAIN  27  26  96 NE17      29.73R FOG     WCI  14
RED WING       MIX PCPN  27  19  74 E10G21    29.81R WCI  17
STANTON        LGT SNOW  26  23  89 NE17      29.80R WCI  13
DODGE CENTER   MIX PCPN  25  25 100 NE9       29.74S WCI  15
WINONA         CLOUDY    32  30  93 NE8       29.75F WCI  25
AUSTIN         LGT SNOW  28  27  93 NE9       29.71F WCI  20
PRESTON        CLOUDY    31  29  95 N10       29.72R FOG     WCI  22
$$
ABBREVIATIONS USED IN REMARKS
   TC - TEMPERATURES IN CELSIUS
  WCI - WIND CHILL INDEX
   HX - HEAT INDEX
  VSB - VISIBILITY
$$




USA.gov is the U.S. government's official web portal to all federal, state and local government web resources and services.